Find Starlink 32901

NORAD ID: 62895 Int'l Des: 2025-024 Owner: SPXS Country: US Constellation: starlink operational
LEOCIRCULAR

Live-Position

3D-Globus wird geladen...

Über Starlink 32901

Beschreibung wird geladen...

Nächste Überflüge

Passes for default location (London). Set your location on the main map for personalized predictions.

Höhenverlauf

Loading altitude history...

Zweizeiliger Elementsatz

1 62895U 25024S 26126.99118275 .00014889 00000-0 54956-3 0 9994
2 62895 42.9972 355.9996 0001159 257.0756 102.9966 15.27575850 71184
Epoch: 6. Mai 2026 • Age: 11 hours

Aktueller Status

Höhe 488.0 km
Geschwindigkeit 7.62 km/s
Subsatellitenpunkt -22.46°S, 57.38°W
Startdatum 4. Feb. 2025
Alter 1.2 years
Typ internet

Technische Details

Klassifizierung Payload
Masse 730.00 kg
Trockenmasse 700.00 kg
Gesamtmasse 730.00 kg
Länge 0.30 m
Durchmesser 4.10 m
Spannweite 29.00 m
Form Box + pan
Hersteller SPXS
Bus-Typ Starlink V2M
Phasenstatus In Orbit
Besitzer/Staat SPXS/US

Most Searched